FW8786 Weather Reports


time (UTC)temp
C
wind
direction
speed
KPH
gust
KPH
rain 1hr
cm
rain 24hr
cm
rain mn
cm
humidity
%
barometer
mb
20260504180051 17 0 0.0 0.0 0.00 0.00 0.00 83 1006.1
20260504174545 17 0 0.0 0.0 0.00 0.00 0.00 80 1006.0
20260504173039 17 0 0.0 0.0 0.00 0.00 0.00 78 1006.2
20260504171538 18 0 0.0 3.2 0.00 0.00 0.00 76 1006.0
20260504081536 15 0 0.0 0.0 0.00 0.00 0.00 74 1008.7
20260504044539 19 0 0.0 4.8 0.00 0.00 0.00 57 1008.5
20260504043043 19 0 0.0 6.4 0.00 0.00 0.00 57 1009.0
20260504041538 19 0 0.0 3.2 0.00 0.00 0.00 57 1009.3
20260504040037 18 136 1.6 6.4 0.00 0.00 0.00 58 1009.1
20260504034539 18 0 0.0 1.6 0.00 0.00 0.00 61 1009.8
20260504033032 18 0 0.0 0.0 0.00 0.00 0.00 60 1010.0
20260504031534 18 0 0.0 0.0 0.00 0.00 0.00 58 1009.9
20260504030046 18 0 0.0 0.0 0.00 0.00 0.00 57 1009.7
20260504024536 18 0 0.0 0.0 0.00 0.00 0.00 57 1009.7
20260504023036 18 0 0.0 0.0 0.00 0.00 0.00 57 1009.7
20260504021539 19 0 0.0 1.6 0.00 0.00 0.00 57 1009.5
20260504020040 20 0 0.0 0.0 0.00 0.00 0.00 54 1009.5
20260504014548 20 0 0.0 0.0 0.00 0.00 0.00 52 1009.3
20260504013038 21 0 0.0 0.0 0.00 0.00 0.00 51 1009.3
20260504011537 21 0 0.0 0.0 0.00 0.00 0.00 49 1009.2
20260504010035 22 0 0.0 0.0 0.00 0.00 0.00 47 1009.2
20260504004535 22 0 0.0 0.0 0.00 0.00 0.00 46 1009.2
20260504003041 23 0 0.0 4.8 0.00 0.00 0.00 45 1009.2
20260504001539 23 0 0.0 3.2 0.00 0.00 0.00 43 1009.2
20260504000038 23 0 0.0 3.2 0.00 0.00 0.00 42 1009.3
20260503234535 24 0 0.0 9.7 0.00 0.00 0.00 40 1009.4
20260503233036 24 309 0.0 9.7 0.00 0.00 0.00 38 1009.4
20260503231541 25 0 0.0 6.4 0.00 0.00 0.00 37 1009.5
20260503230038 25 0 1.6 9.7 0.00 0.00 0.00 36 1009.6
20260503224536 25 258 3.2 11.3 0.00 0.00 0.00 35 1009.6
20260503223035 25 266 3.2 9.7 0.00 0.00 0.00 34 1009.7
20260503221535 25 345 3.2 14.5 0.00 0.00 0.00 33 1010.0
20260503220035 25 246 1.6 9.7 0.00 0.00 0.00 36 1010.0
20260503214542 25 0 1.6 11.3 0.00 0.00 0.00 37 1010.1
20260503213039 24 0 1.6 11.3 0.00 0.00 0.00 40 1010.0
20260503211546 24 257 3.2 25.7 0.00 0.00 0.00 37 1010.2
20260503210036 23 107 1.6 16.1 0.00 0.00 0.00 39 1010.5
20260503204534 23 0 0.0 11.3 0.00 0.00 0.00 38 1010.6
20260503203046 23 276 1.6 19.3 0.00 0.00 0.00 39 1011.0
20260503201538 23 152 0.0 9.7 0.00 0.00 0.00 40 1011.5
20260503200052 23 257 3.2 14.5 0.00 0.00 0.00 39 1011.8
20260503194536 22 123 1.6 14.5 0.00 0.00 0.00 39 1012.2
20260503193037 22 258 0.0 16.1 0.00 0.00 0.00 39 1012.5
20260503191544 22 268 3.2 11.3 0.00 0.00 0.00 39 1013.0
20260503190047 22 329 1.6 11.3 0.00 0.00 0.00 38 1013.4
20260503184543 22 0 1.6 6.4 0.00 0.00 0.00 39 1013.7
20260503183042 21 0 3.2 14.5 0.00 0.00 0.00 39 1014.0
20260503181552 21 0 1.6 12.9 0.00 0.00 0.00 38 1014.8